Content
SEND FEEDBACK

Daily
Averages
Monthly
Summary
United States of America

GLEN CANYON CITY, UTAH


Home > North America > United States > Utah
Elevation: 4133 feet     Latitude: 37 05N     Longitude: 111 40W

WEATHER
 
SELECT A DAY
Number of Records: 197,140;   Date Range: 1/1/95 - 10/22/14
 
SHARE

PRINT THIS DATA

[ ← Previous Day ]
WEATHER ALMANAC - APRIL 16, 2014
[ Next Day → ]
[ °C ]   °F
Weather ElementAverageHighLow
Temperature62.2 °F70 °F (2:53 pm)54 °F (3:53 am)
Dewpoint16.3 °F28.9 °F (8:53 pm)1.9 °F (1:53 am)
Humidity17.4 %30 % (8:53 pm)10 % (1:53 am)
Barometer29.76 in29.91 in (10:53 am)29.70 in (4:53 am)
Wind Speed5.8 mph13.8 mph (12:53 pm)
Wind Gust18.4 mph (12:53 pm)
Weather ElementAverage
Visibility10 mi
Wind DirectionSE (132.5 °)

Weather ElementTotal
Precipitation---
Heating Degree Days3 (Base 65)
Growing Degree Days12 (Base 50)
Averaged from 20 records on April 16, 2014
WEATHER CONDITIONS BREAKOUT
WIND DIRECTION BREAKOUT
WEATHER BY HOUR - APRIL 16, 2014
[ °C ]   °F
Local TimeTemperatureDewpointHumidityBarometerVisibilityWind DirectionWind SpeedGust SpeedPrecipitationEventsConditions
1:53 AM57.9 °F1.9 °F10 %29.71 in10.0 miWNW (290°)5.8 mphClear
2:53 AM59.0 °F3.0 °F11 %29.71 in10.0 miNNW (340°)8.1 mphClear
3:53 AM54.0 °F1.9 °F12 %29.71 in10.0 miCalmClear
4:53 AM57.0 °F5.0 °F12 %29.70 in10.0 miNNW (330°)6.9 mphClear
5:53 AM55.9 °F6.1 °F14 %29.72 in10.0 miNNW (340°)10.4 mphClear
6:53 AM55.0 °F8.1 °F15 %29.74 in10.0 miNW (320°)4.6 mphClear
7:53 AM55.9 °F10.0 °F16 %29.75 in10.0 miCalmClear
8:53 AM60.1 °F12.9 °F16 %29.75 in10.0 miWNW (300°)5.8 mphClear
9:53 AM62.1 °F15.1 °F16 %29.76 in10.0 miWest (270°)5.8 mphClear
10:53 AM62.6 °F17.6 °F18 %29.91 in10.0 miVariable4.6 mphScattered Clouds
11:53 AM64.9 °F18.0 °F16 %29.77 in10.0 miNorth (10°)10.4 mphOvercast
12:53 PM66.0 °F19.0 °F17 %29.78 in10.0 miNorth (10°)13.8 mph18.4 mphOvercast
1:53 PM66.2 °F23.0 °F19 %29.91 in10.0 miCalmOvercast
2:53 PM70.0 °F24.1 °F18 %29.73 in10.0 miENE (70°)9.2 mphPartly Cloudy
3:53 PM69.1 °F24.1 °F18 %29.73 in10.0 miEast (80°)4.6 mphClear
4:53 PM70.0 °F26.1 °F19 %29.71 in10.0 miNE (40°)5.8 mphClear
5:53 PM68.0 °F27.0 °F21 %29.72 in10.0 miESE (110°)4.6 mphClear
6:53 PM66.9 °F27.0 °F22 %29.74 in10.0 miNNE (20°)5.8 mphClear
7:53 PM63.0 °F28.0 °F27 %29.78 in10.0 miNE (40°)5.8 mphClear
8:53 PM61.0 °F28.9 °F30 %29.80 in10.0 miEast (80°)4.6 mphClear
Hourly data recorded from KPGA, located miles away from Glen Canyon City, Utah







STORIES FROM OUR PARTNERS